Flag for Bosnia-Herzegovina Weather past 2 weeks in Sarajevo, Bosnia-Herzegovina

Now
46 °F

Fog.


Feels Like: 46 °F
Forecast: 44 / 69 °F
Wind: 1 mph from North

Location: Sarajevo / Butmir

Current Time: Oct 20, 2014 at 11:02:07 AM

Latest Report: Oct 20, 2014 at 10:30 AM


Visibility: 1 mi

Pressure: 30.30 "Hg

Humidity: 100%

Dew point: 46 °F

Location of SarajevoLocation

Historic Weather in Sarajevo — Graph

°F

Sarajevo temperature yesterday

Maximum temperature yesterday: 70 °F (at 3:30 PM)
Minimum temperature yesterday: 41 °F (at 5:00 AM)
Average temperature yesterday: 51 °F

Past Weeks' High & Low Weather Summary

 TemperatureHumidityPressure
High77 °F (Oct 11, 3:30 PM)100% (Oct 6, 12:00 AM)30.42 "Hg (Oct 6, 12:00 AM)
Low39 °F (Oct 20, 5:00 AM)36% (Oct 9, 4:30 PM)29.86 "Hg (Oct 16, 4:00 AM)
Average58 °F82%30.11 "Hg
* Reported Oct 5 10:00 AM — Oct 20 10:00 AM, Sarajevo, Weather by CustomWeather, © 2014

Note: Actual official high and low records may vary slightly from our data, if they occured in-between our weather recording intervals... More about our weather records

Advertising

Sarajevo weather history for previous 24 hours

 ConditionsComfort  
Time TempWeatherWind HumidityBarometerVisibility
10:00 AM
Oct 20
43 °FFog.No wind100%30.30 "Hg1 mi
9:30 AM41 °FFog.1 mph100%30.30 "Hg1 mi
9:00 AM41 °FFog.1 mph100%30.30 "Hg1 mi
8:30 AM41 °FFog.No wind93%30.30 "Hg0 mi
8:00 AM41 °FFog.1 mph93%30.30 "Hg0 mi
7:30 AM39 °FFog.1 mph100%30.27 "Hg0 mi
7:00 AM39 °FFog.No wind100%30.27 "Hg0 mi
5:30 AM39 °FPassing clouds.1 mph100%30.27 "Hg1 mi
5:00 AM39 °FFog.1 mph100%30.27 "Hg3 mi
4:00 AM41 °FClear.1 mph93%30.30 "Hg10 mi
3:00 AM41 °FClear.1 mph100%30.30 "Hg10 mi
2:00 AM41 °FClear.1 mph100%30.30 "Hg10 mi
1:00 AM43 °FClear.1 mph100%30.30 "Hg10 mi
12:00 AM45 °FClear.1 mph93%30.30 "Hg10 mi
11:00 PM
Oct 19
46 °FClear.2 mph93%30.33 "Hg10 mi
10:30 PM46 °FClear.1 mph93%30.33 "Hg10 mi
10:00 PM48 °FClear.No wind94%30.33 "Hg10 mi
9:30 PM48 °FClear.2 mph94%30.30 "Hg10 mi
9:00 PM50 °FClear.No wind88%30.30 "Hg10 mi
8:30 PM50 °FClear.1 mph94%30.30 "Hg10 mi
8:00 PM52 °FClear.3 mph88%30.33 "Hg10 mi
7:30 PM52 °FClear.2 mph88%30.30 "Hg10 mi
7:00 PM54 °FClear.3 mph88%30.30 "Hg10 mi
6:30 PM55 °FSunny.1 mph77%30.27 "Hg10 mi
6:00 PM59 °FSunny.2 mph72%30.27 "Hg10 mi
5:30 PM63 °FSunny.2 mph64%30.27 "Hg10 mi
5:00 PM66 °FSunny.2 mph60%30.27 "Hg10 mi
4:30 PM70 °FSunny.No wind53%30.27 "Hg10 mi
4:00 PM68 °FSunny.1 mph60%30.27 "Hg10 mi
3:30 PM70 °FSunny.1 mph53%30.30 "Hg10 mi
3:00 PM66 °FSunny.1 mph60%30.30 "Hg10 mi
2:30 PM64 °FSunny.2 mph64%30.30 "Hg10 mi
2:00 PM63 °FSunny.1 mph68%30.33 "Hg10 mi
1:30 PM59 °FSunny.2 mph72%30.33 "Hg10 mi
1:00 PM57 °FSunny.1 mph77%30.36 "Hg10 mi
12:30 PM54 °FClear.1 mph100%30.36 "Hg5 mi
12:00 PM50 °FFog.1 mph100%30.39 "Hg2 mi
11:30 AM48 °FFog.1 mph100%30.39 "Hg1 mi
11:00 AM46 °FFog.1 mph100%30.39 "Hg1 mi
Weather by CustomWeather, © 2014

See weather overviewHow to use our weather pages